Погода в Сосьве

Погода в Сосьве : погода сейчас, прогноз погоды и архив. Всё, что Вы хотите узнать о погоде в Сосьве!

Хотите узнать прогноз погоды в Сосьве? Тогда Вам сюда: Погода в Сосьве

Поиск расширенной информации на нашем сайте:

Другие новости

Новости СМИ2

Главная страница сайта

Новости сайта

03.07.2017

Напоминаем, что на нашем специализированном сайте Метеоцентр.Азия вы можете получить высокодетализированные автоматические прогнозы погоды по пунктам России, СНГ и мира в авиационном формате (включающие направление и скорость ветра, видимость, явления погоды, количество и форму облачности, нижнюю и верхнюю границу облачности).

Рекомендуем: Видео логопедических занятий постановка звука.

Погода в Сосьве - сегодня

Время (UTC), дата Ветер
(°,м/с) 
Видим.   Явления Облачность Т
(°С)
Тd
(°С)
f(%) Тe
(°С)
Pmin
(гПа)
dP
(гПа)
Po
(мм)
O2
(г/м3)
Тmin Tmax R s Состояние
почвы
06 18.07.17 180 (Ю) 20000 м    4/0 верхняя 
[Ci fib]
+24.9 +9.1 37 +25  1018.3  -0.3  761  280           
09 18.07.17 150 (ЮВ) 20000 м    6/4 1000 м верхняя 
[Cu med, cong|Ci fib]
+25.5 +8.3 34 +26  1017.4  -0.9  761  279           
12 18.07.17 170 (Ю) 20000 м    4/4 1000 м 
[Cu med, cong]
+26.1 +7.6 31 +26  1016.1  -1.4  760  278           
15 18.07.17 150 (ЮВ) 20000 м    3/3 1000 м 
[Cu med, cong]
+25.2 +10.1 39 +26  1015.6  -0.4  759  278    +27.5       
18 18.07.17 тихо ()   20000 м    3/3 600 м 
[Sc]
+18.5 +11.8 65 +22  1016.1  0.4  760  284           
21 18.07.17 110 (В) 20000 м    ясно 
+16.3 +11.1 71 +20  1016  -0.1  760  287           
00 19.07.17 130 (ЮВ) 20000 м    ясно 
+15.9 +11 73 +19  1015.9  0.1  760  287           
03 19.07.17 120 (ЮВ) 20000 м    3/3 600 м 
[Sc]
+20.5 +12.4 60 +25  1015.9  760  282  +14.8         
06 19.07.17 160 (Ю) 20000 м    4/4 600 м кучево-дожд. 
[Cb cap]
+26.5 +10.9 38 +29  1015.3  -0.6  759  277           
09 19.07.17 180 (Ю) 20000 м    8/8 600 м кучево-дожд. 
[Cb cap]
+28 +7.7 28 +28  1014.2  -1  758  276           
12 19.07.17 150 (ЮВ) 20000 м    6/6 600 м кучево-дожд. 
[Cb cap]
+28.3 +7.8 27 +28  1013.1  -1.1  758  275           
15 19.07.17 140 (ЮВ) 20000 м    4/4 1000 м 
[Cu hum]
+27.2 +8.9 32 +27  1012.8  -0.3  757  276    +28.8       
18 19.07.17 090 (В) 20000 м    ясно 
+17.9 +12.4 70 +23  1013.6  0.7  758  284           
21 19.07.17 080 (В) 20000 м    ясно 
+15.3 +11.5 78 +20  1013.5  0.1  758  287           
00 20.07.17 070 (В) 20000 м    4/0 верхняя 
[Ci fib]
+14.8 +12.3 85 +20  1013.9  0.4  758  287           
03 20.07.17 140 (ЮВ) 20000 м    3/0 верхняя 
[Ci fib]
+21.2 +14.9 67 +29  1014.2  0.3  758  280           
06 20.07.17 160 (Ю) 20000 м    3/0 средняя 
[Ac trans]
+26.3 +13.3 45 +32  1014  0.1  758  276           
09 20.07.17 140 (ЮВ) 20000 м  гроза без осадков  9/9 600 м кучево-дожд. 
[Cb calv]
+28.4 +12.3 37 +33  1013  -1  757  274           
12 20.07.17 070 (В) 20000 м  гроза без осадков  10/8 600 м кучево-дожд., верхняя 
[Cb calv|Ci]
+26.5 +12.5 42 +31  1012.9  -0.1  757  276           
15 20.07.17 тихо ()   20000 м    8/8 600 м кучево-дожд. 
[Cb calv]
+23.4 +15.3 60 +32  1013.1  0.2  758  278    +29.5       
18 20.07.17 280 (З) 20000 м  {гроза}  4/4 600 м 
[Sc diur, vesp]
+19.4 +12.6 65 +25  1014.5  1.3  758  283           
21 20.07.17 тихо ()   20000 м    3/3 600 м 
[Sc diur, vesp]
+15.1 +12.5 84 +19  1014.4  0.1  758  287           
00 21.07.17 310 (СЗ) 20000 м    3/3 600 м 
[Sc diur, vesp]
+15.1 +12.9 87 +21  1015.1  0.7  759  287           
03 21.07.17 тихо ()   20000 м    9/3 600 м кучево-дожд., верхняя 
[Cb calv|Cc]
+21 +14.5 66 +28  1016.1  760  281  +13.5         
06 21.07.17 320 (СЗ) 20000 м    ясно 
+26.3 +13.3 45 +32  1016.2  0.2  760  277           
Время (UTC), дата Ветер
(°,м/с) 
Видим.   Явления Облачность Т
(°С)
Тd
(°С)
f(%) Тe
(°С)
Pmin
(гПа)
dP
(гПа)
Po
(мм)
O2
(г/м3)
Тmin Tmax R s Состояние
почвы

Для получения пояснительной информации подведите курсор к названию столбца.

ПОГОДА в Сосьве - архив

Всё, что Вы хотите узнать о погоде в Сосьве - удобно и подробно!

Выберите нужную дату (начиная с 1 января 2015* года) и нажмите кнопку "Найти".
Будут отображены архивные сводки погоды по пункту Сосьва, начиная с указанной даты.


Отображать данные в формате CSV (для использования в таблицах Excel)


Внимание! Наш архив погоды предназначен исключительно для личного некоммерческого использования в познавательных целях. Если Вам необходимы официальные справки о состоянии погоды (для производственных, юридических, коммерческих и т.п. целей), обращайтесь в органы Росгидромета.

*Примечание: данная дата относится к архиву по метеостанциям СССР (Россия, СНГ, Балтия).
Архив по метеостанциям Зарубежной Европы и Азии (кроме Китая) хранится 10 дней, по другим регионам земного шара (Китай, Африка, Америка, Австралия, Океания) - 1 день.

Сосьва - район местоположения метеостанции


Название, широта, долгота, высота метеостанции:
Сосьва 63.6°ш. 62.1°д. 28 м над ур. моря [Российская Федерация]

Дополнительная информация

В oтличие oт бoльшинства пoгoдных сайтoв мы публикуем пoдрoбную метеoинфoрмацию в детальнoм прoфессиoнальнoм фoрмате.

Характеристики температуры и влажнoсти вoздуха измеряются на высoте 2 м в тени вдали oт зданий и деревьев.
Скoрoсть ветра измеряется на высoте 10 м (на урoвне рoста челoвека скoрoсть ветра ниже в 1.5-2 раза). Если метеoстанция нахoдится в гoрoде или в лесу, тo скoрoсть ветра занижена на 2-4 м/с пo сравнению с oткрытым местoм. Скoрoсть ветра над акватoриями крупных рек и oзёр, а также на вершинах хoлмoв на 2-5 м/с выше, чем в oбычных услoвиях.
Атмoсфернoе давление в разных тoчках местнoсти мoжет значительнo oтличаться oт давления на метеoстанции, в зависимoсти oт услoвий рельефа (при пoдъёме на 10 м давление пoнижается примернo на 1 мм рт.ст.).